Weather History for Seward, AK

Change the Weather History Date:

Friday, April 13, 2012

  Actual Average Record
Temperature  
Mean Temperature 36 °F -  
Max Temperature 42 °F 41 °F 53 °F (1965)
Min Temperature 30 °F 30 °F 16 °F (1977)
Degree Days  
Heating Degree Days 30    
Moisture  
Dew Point 29 °F    
Average Humidity 76    
Maximum Humidity 82    
Minimum Humidity 69    
Precipitation  
Precipitation 0.00 in - - ()
Sea Level Pressure  
Sea Level Pressure 29.91 in    
Wind  
Wind Speed 5 mph (WSW)    
Max Wind Speed 13 mph    
Max Gust Speed -    
Visibility 10 miles    
Events      
Averages and records for this station are not official NWS values.
T = Trace of Precipitation, MM = Missing Value Source: NWS Daily Summary

Daily Weather History Graph

Daily Weather History Graph

Search for Another Location

Airport:

Trip Planner

Search our weather history database for the weather conditions in past years. The results will help you decide how hot, cold, wet, or windy it might be!

Date:

Astronomy

Apr. 13, 2012 Rise Set
Actual Time 6:44 AM AKDT 9:13 PM AKDT
Civil Twilight 5:58 AM AKDT 9:59 PM AKDT
Nautical Twilight 4:57 AM AKDT 11:01 PM AKDT
Astronomical Twilight 3:34 AM AKDT 12:27 AM AKDT
Moon 4:26 AM AKDT (4/13) 12:25 PM AKDT (4/13)
Length of Visible Light 16h 01m
Length of Day
14h 28m
Last Quarter, 46% of the Moon is Illuminated
Apr 13
Last Quarter
Apr 20
New
Apr 29
First Quarter
May 5
Full
May 12
Last Quarter

Hourly Weather History & Observations

Time (AKDT) Temp. Windchill Dew Point Humidity Pressure Visibility Wind Dir Wind Speed Gust Speed Precip Events Conditions
12:53 AM 33.1 °F 28.7 °F 26.1 °F 75% 29.89 in 10.0 mi North 4.6 mph - N/A   Mostly Cloudy
1:53 AM 34.0 °F 29.8 °F 26.1 °F 73% 29.89 in 10.0 mi NNW 4.6 mph - N/A   Mostly Cloudy
2:53 AM 34.0 °F 28.8 °F 25.0 °F 70% 29.90 in 10.0 mi North 5.8 mph - N/A   Scattered Clouds
3:53 AM 34.0 °F 29.8 °F 25.0 °F 70% 29.90 in 10.0 mi NNW 4.6 mph - N/A   Clear
4:53 AM 30.0 °F - 24.1 °F 79% 29.91 in 10.0 mi Calm Calm - N/A   Clear
5:53 AM 32.0 °F 28.7 °F 24.1 °F 73% 29.90 in 10.0 mi NW 3.5 mph - N/A   Clear
6:53 AM 32.0 °F 25.6 °F 23.0 °F 69% 29.91 in 10.0 mi North 6.9 mph - N/A   Partly Cloudy
7:53 AM 30.0 °F 26.5 °F 23.0 °F 75% 29.92 in 10.0 mi North 3.5 mph - N/A   Clear
9:53 AM 35.1 °F - 28.0 °F 76% 29.92 in 10.0 mi Calm Calm - N/A   Clear
10:53 AM 37.0 °F 33.3 °F 28.9 °F 73% 29.92 in 10.0 mi SSE 4.6 mph - N/A   Clear
11:53 AM 37.9 °F 32.1 °F 30.0 °F 73% 29.93 in 10.0 mi South 8.1 mph - N/A   Clear
12:53 PM 39.9 °F 35.8 °F 34.0 °F 79% 29.93 in 10.0 mi South 5.8 mph - N/A   Clear
1:53 PM 41.0 °F 35.8 °F 34.0 °F 76% 29.93 in 10.0 mi SSE 8.1 mph - N/A   Clear
2:53 PM 41.0 °F 35.8 °F 34.0 °F 76% 29.93 in 10.0 mi South 8.1 mph - N/A   Clear
3:53 PM 41.0 °F 35.8 °F 35.1 °F 79% 29.93 in 10.0 mi South 8.1 mph - N/A   Clear
4:53 PM 41.0 °F 33.9 °F 34.0 °F 76% 29.92 in 10.0 mi South 12.7 mph - N/A   Clear
5:53 PM 41.0 °F 36.4 °F 34.0 °F 76% 29.91 in 10.0 mi South 6.9 mph - N/A   Clear
6:53 PM 41.0 °F - 34.0 °F 76% 29.91 in 10.0 mi Calm Calm - N/A   Scattered Clouds
7:53 PM 41.0 °F 39.0 °F 32.0 °F 70% 29.90 in 10.0 mi South 3.5 mph - N/A   Clear
8:53 PM 37.9 °F - 32.0 °F 79% 29.90 in 10.0 mi Calm Calm - N/A   Mostly Cloudy
9:53 PM 35.1 °F - 30.0 °F 82% 29.90 in 10.0 mi Calm Calm - N/A   Partly Cloudy
10:53 PM 34.0 °F - 28.9 °F 82% 29.91 in 10.0 mi Calm Calm - N/A   Overcast
11:53 PM 33.1 °F 27.7 °F 28.0 °F 82% 29.89 in 10.0 mi NNW 5.8 mph - N/A   Clear